When you browse on this site, cookies collect data to enhance your experience and personalize the content and advertising you see.
Visit our Privacy Policy to learn more. By continuing to use the site, you agree to this use of cookies and data.
  • en Belgique
  • Liste des pays
  • À 7 jours
  • Température de l'eau
  • Carte satellitaire
  • Carte météo
  • Widgets météo
  • user-avatar
    Se connecter

    Météo par heure à Vagranskaya

    Ce jour, 15 Décembre, Samedi

    Heure Température Précipitation Vent Pression Humidité
    00:00 -10°C° 0 mm 2 m/s 761 mmHg 85%
    01:00 -10°C° 0 mm 2 m/s 760 mmHg 84%
    02:00 -10°C° 0 mm 2 m/s 760 mmHg 83%
    03:00 -10°C° 0 mm 2 m/s 760 mmHg 82%
    04:00 -12°C° 0 mm 2 m/s 760 mmHg 85%
    05:00 -12°C° 0 mm 2 m/s 759 mmHg 83%
    06:00 -10°C° 0 mm 2 m/s 759 mmHg 82%
    07:00 -10°C° 0 mm 2 m/s 759 mmHg 80%
    08:00 -9°C° 0 mm 2 m/s 759 mmHg 80%
    09:00 -9°C° 0 mm 2 m/s 759 mmHg 80%
    10:00 -8°C° 0 mm 2 m/s 759 mmHg 79%
    11:00 -7°C° 0 mm 2 m/s 759 mmHg 80%
    12:00 -7°C° 0 mm 2 m/s 759 mmHg 81%
    13:00 -7°C° 0 mm 2 m/s 759 mmHg 83%
    14:00 -8°C° 0 mm 2 m/s 759 mmHg 85%
    15:00 -9°C° 0 mm 2 m/s 759 mmHg 87%
    16:00 -10°C° 0 mm 2 m/s 760 mmHg 89%
    17:00 -12°C° 0 mm 2 m/s 760 mmHg 89%
    18:00 -10°C° 0 mm 1 m/s 760 mmHg 89%
    19:00 -10°C° 0 mm 1 m/s 760 mmHg 90%
    20:00 -10°C° 0 mm 1 m/s 760 mmHg 90%
    21:00 -12°C° 0 mm 2 m/s 760 mmHg 90%
    22:00 -12°C° 0 mm 2 m/s 761 mmHg 89%
    23:00 -12°C° 0 mm 2 m/s 761 mmHg 89%

    Demain, 16 Décembre, Dimanche

    Heure Température Précipitation Vent Pression Humidité
    00:00 -12°C° 0 mm 2 m/s 761 mmHg 89%
    01:00 -12°C° 0 mm 2 m/s 761 mmHg 89%
    02:00 -12°C° 0 mm 2 m/s 761 mmHg 89%
    03:00 -10°C° 0 mm 2 m/s 761 mmHg 89%
    04:00 -10°C° 0 mm 2 m/s 761 mmHg 89%
    05:00 -10°C° 0 mm 2 m/s 761 mmHg 89%
    06:00 -10°C° 0 mm 2 m/s 761 mmHg 89%
    07:00 -10°C° 0 mm 2 m/s 761 mmHg 89%
    08:00 -9°C° 0 mm 2 m/s 762 mmHg 89%
    09:00 -9°C° 0 mm 2 m/s 762 mmHg 89%
    10:00 -9°C° 0 mm 2 m/s 762 mmHg 89%
    11:00 -8°C° 0 mm 2 m/s 762 mmHg 89%
    12:00 -7°C° 0 mm 2 m/s 762 mmHg 89%
    13:00 -4°C° 0 mm 1 m/s 762 mmHg 88%
    14:00 -7°C° 0 mm 2 m/s 762 mmHg 89%
    15:00 -7°C° 0 mm 2 m/s 762 mmHg 89%
    16:00 -8°C° 0 mm 2 m/s 762 mmHg 89%
    17:00 -8°C° 0 mm 2 m/s 763 mmHg 89%
    18:00 -8°C° 0 mm 2 m/s 763 mmHg 90%
    19:00 -8°C° 0 mm 2 m/s 763 mmHg 90%
    20:00 -7°C° 0 mm 2 m/s 763 mmHg 90%
    21:00 -7°C° 0 mm 2 m/s 763 mmHg 90%
    22:00 -7°C° 0 mm 2 m/s 763 mmHg 90%
    23:00 -7°C° 0 mm 2 m/s 763 mmHg 90%

    Après-demain, 17 Décembre, Lundi

    Heure Température Précipitation Vent Pression Humidité
    00:00 -7°C° 0 mm 2 m/s 763 mmHg 90%
    01:00 -7°C° 0 mm 2 m/s 763 mmHg 90%
    02:00 -7°C° 0 mm 2 m/s 763 mmHg 90%
    03:00 -7°C° 0 mm 2 m/s 764 mmHg 90%
    04:00 -6°C° 0 mm 1 m/s 764 mmHg 90%
    05:00 -6°C° 0 mm 1 m/s 764 mmHg 91%
    06:00 -6°C° 0 mm 1 m/s 764 mmHg 91%
    07:00 -6°C° 0 mm 1 m/s 764 mmHg 91%
    08:00 -6°C° 0 mm 1 m/s 764 mmHg 91%
    09:00 -6°C° 0 mm 2 m/s 764 mmHg 91%
    10:00 -6°C° 0 mm 2 m/s 764 mmHg 91%
    11:00 -6°C° 0 mm 2 m/s 764 mmHg 90%
    12:00 -5°C° 0 mm 2 m/s 764 mmHg 90%
    13:00 -4°C° 0 mm 2 m/s 764 mmHg 89%
    14:00 -5°C° 0 mm 2 m/s 764 mmHg 90%
    15:00 -6°C° 0 mm 2 m/s 764 mmHg 90%
    16:00 -7°C° 0 mm 2 m/s 763 mmHg 91%
    17:00 -7°C° 0 mm 2 m/s 763 mmHg 91%
    18:00 -8°C° 0 mm 2 m/s 763 mmHg 91%
    19:00 -9°C° 0 mm 2 m/s 763 mmHg 91%
    20:00 -9°C° 0 mm 2 m/s 763 mmHg 91%
    21:00 -10°C° 0 mm 2 m/s 763 mmHg 91%
    22:00 -10°C° 0 mm 2 m/s 762 mmHg 90%
    23:00 -10°C° 0 mm 2 m/s 762 mmHg 90%

    18 Décembre, Mardi

    Heure Température Précipitation Vent Pression Humidité
    00:00 -10°C° 0 mm 2 m/s 762 mmHg 90%
    01:00 -10°C° 0 mm 2 m/s 762 mmHg 89%
    02:00 -10°C° 0 mm 2 m/s 762 mmHg 88%
    03:00 -10°C° 0 mm 2 m/s 761 mmHg 87%
    04:00 -10°C° 0 mm 2 m/s 761 mmHg 85%
    05:00 -10°C° 0 mm 2 m/s 761 mmHg 84%
    06:00 -10°C° 0 mm 2 m/s 761 mmHg 83%
    07:00 -10°C° 0 mm 2 m/s 761 mmHg 81%
    08:00 -10°C° 0 mm 2 m/s 761 mmHg 80%
    09:00 -10°C° 0 mm 2 m/s 761 mmHg 79%
    10:00 -10°C° 0 mm 2 m/s 761 mmHg 79%
    11:00 -10°C° 0 mm 2 m/s 761 mmHg 79%
    12:00 -9°C° 0 mm 2 m/s 761 mmHg 79%
    13:00 -8°C° 0 mm 2 m/s 761 mmHg 79%
    14:00 -9°C° 0 mm 2 m/s 761 mmHg 81%
    15:00 -10°C° 0 mm 2 m/s 762 mmHg 83%
    16:00 -12°C° 0 mm 2 m/s 762 mmHg 85%
    17:00 -13°C° 0 mm 2 m/s 762 mmHg 86%
    18:00 -13°C° 0 mm 2 m/s 762 mmHg 86%
    19:00 -14°C° 0 mm 2 m/s 763 mmHg 87%
    20:00 -14°C° 0 mm 2 m/s 763 mmHg 87%
    21:00 -14°C° 0 mm 2 m/s 763 mmHg 87%
    22:00 -15°C° 0 mm 2 m/s 764 mmHg 88%
    23:00 -15°C° 0 mm 2 m/s 764 mmHg 88%

    19 Décembre, Mercredi

    Heure Température Précipitation Vent Pression Humidité
    00:00 -15°C° 0 mm 2 m/s 764 mmHg 88%
    01:00 -15°C° 0 mm 2 m/s 765 mmHg 88%
    02:00 -14°C° 0 mm 2 m/s 765 mmHg 88%
    03:00 -14°C° 0 mm 2 m/s 766 mmHg 88%
    04:00 -11°C° 0 mm 1 m/s 766 mmHg 88%
    05:00 -12°C° 0 mm 1 m/s 767 mmHg 89%
    06:00 -12°C° 0 mm 1 m/s 767 mmHg 89%
    07:00 -12°C° 0 mm 1 m/s 768 mmHg 90%
    08:00 -12°C° 0 mm 1 m/s 768 mmHg 90%
    09:00 -13°C° 0 mm 1 m/s 769 mmHg 91%
    10:00 -13°C° 0 mm 1 m/s 769 mmHg 91%
    11:00 -12°C° 0 mm 1 m/s 769 mmHg 92%
    12:00 -12°C° 0 mm 1 m/s 770 mmHg 92%
    13:00 -12°C° 0 mm 1 m/s 770 mmHg 92%
    14:00 -13°C° 0 mm 1 m/s 770 mmHg 94%
    15:00 -14°C° 0 mm 0 m/s 771 mmHg 95%
    16:00 -15°C° 0 mm 0 m/s 771 mmHg 96%
    17:00 -15°C° 0 mm 0 m/s 771 mmHg 96%
    18:00 -15°C° 0 mm 0 m/s 772 mmHg 96%
    19:00 -15°C° 0 mm 0 m/s 772 mmHg 96%
    20:00 -15°C° 0 mm 0 m/s 772 mmHg 96%
    21:00 -15°C° 0 mm 0 m/s 772 mmHg 96%
    22:00 -15°C° 0 mm 0 m/s 773 mmHg 96%
    23:00 -15°C° 0 mm 0 m/s 773 mmHg 96%

    20 Décembre, Jeudi

    Heure Température Précipitation Vent Pression Humidité
    00:00 -15°C° 0 mm 0 m/s 773 mmHg 96%
    01:00 -15°C° 0 mm 0 m/s 773 mmHg 96%
    02:00 -16°C° 0 mm 0 m/s 773 mmHg 96%
    03:00 -16°C° 0 mm 0 m/s 773 mmHg 96%
    04:00 -16°C° 0 mm 0 m/s 774 mmHg 96%
    05:00 -16°C° 0 mm 0 m/s 774 mmHg 96%
    06:00 -16°C° 0 mm 0 m/s 774 mmHg 96%
    07:00 -16°C° 0 mm 0 m/s 775 mmHg 96%
    08:00 -16°C° 0 mm 0 m/s 775 mmHg 97%
    09:00 -17°C° 0 mm 0 m/s 775 mmHg 97%
    10:00 -17°C° 0 mm 0 m/s 776 mmHg 97%
    11:00 -16°C° 0 mm 0 m/s 776 mmHg 96%
    12:00 -16°C° 0 mm 0 m/s 776 mmHg 96%
    13:00 -15°C° 0 mm 0 m/s 776 mmHg 95%
    14:00 -16°C° 0 mm 0 m/s 776 mmHg 96%
    15:00 -17°C° 0 mm 0 m/s 776 mmHg 97%
    16:00 -18°C° 0 mm 0 m/s 776 mmHg 98%
    17:00 -18°C° 0 mm 0 m/s 776 mmHg 98%
    18:00 -18°C° 0 mm 1 m/s 777 mmHg 98%
    19:00 -18°C° 0 mm 1 m/s 777 mmHg 98%
    20:00 -18°C° 0 mm 1 m/s 777 mmHg 98%
    21:00 -17°C° 0 mm 1 m/s 776 mmHg 97%
    22:00 -17°C° 0 mm 1 m/s 776 mmHg 97%
    23:00 -17°C° 0 mm 1 m/s 776 mmHg 97%
    Voir plus